Powrót do katalogu

COSMOS 1275 DEB

LostPO
NORAD 42162·DEBRIS·🇷🇺 Russia

Wystrzelony Jun 4, 1981 z Plesetsk Cosmodrome

Loading…

Następne Przeloty (najbliższe 24 godziny)

TLE

NieaktualneSource: Space-Track

Epoka: Aug 8, 2026, 02:33 UTC

1 42162U 81053SA  26220.10688751  .00000974  00000-0  73417-3 0  9995
2 42162  82.8772 136.3350 0073055 196.7969 222.5250 13.92088159645402

Śledź COSMOS 1275 DEB w czasie rzeczywistym z AllMySat

Download on the App Store